Flag for Iran Weather past 2 weeks in Behbahan, Iran

Now
63 °F

Clear.


Feels Like: 63 °F
Forecast: 65 / 83 °F
Wind: No wind

Location: Gach Saran Du Gunbadan

Current Time: Oct 22, 2014 at 1:05:14 AM

Latest Report: Oct 22, 2014 at 12:30 AM


Visibility: 5 mi

Pressure: 30.09 "Hg

Humidity: 73%

Dew point: 54 °F

Location of BehbahanLocation

Historic Weather in Behbahan — Graph

°F

Behbahan temperature yesterday

Maximum temperature yesterday: 82 °F (at 1:30 PM)
Minimum temperature yesterday: 66 °F (at 10:30 PM)
Average temperature yesterday: 74 °F

Past Weeks' High & Low Weather Summary

 TemperatureHumidityPressure
High95 °F (Oct 7, 1:30 PM)88% (Oct 21, 9:30 PM)30.09 "Hg (Oct 21, 9:30 PM)
Low57 °F (Oct 19, 4:30 AM)1% (Oct 11, 2:30 PM)29.80 "Hg (Oct 13, 5:30 AM)
Average79 °F29%30.00 "Hg
* Reported Oct 6 11:30 PM — Oct 21 11:30 PM, Behbahan, Weather by CustomWeather, © 2014

Note: Actual official high and low records may vary slightly from our data, if they occured in-between our weather recording intervals... More about our weather records

Advertising

Behbahan weather history for previous 24 hours

 ConditionsComfort  
Time TempWeatherWind HumidityBarometerVisibility
11:30 PM
Oct 21
66 °FPassing clouds.No wind83%30.07 "Hg5 mi
10:30 PM66 °FPassing clouds.No wind88%30.07 "Hg5 mi
9:30 PM68 °FPassing clouds.No wind88%30.07 "Hg5 mi
8:30 PM70 °FPassing clouds.No wind78%30.07 "HgN/A
7:30 PM70 °FPassing clouds.5 mph78%30.07 "Hg5 mi
6:30 PM73 °FPassing clouds.5 mph65%30.04 "Hg5 mi
5:30 PM77 °FPartly sunny.5 mph47%30.01 "Hg5 mi
4:30 PM77 °FPartly sunny.5 mph47%30.01 "Hg5 mi
3:30 PM81 °FScattered clouds.9 mph39%30.01 "Hg5 mi
2:30 PM82 °FPartly sunny.No wind32%30.01 "HgN/A
1:30 PM82 °FBroken clouds.5 mph48%30.01 "Hg5 mi
12:30 PM77 °FBroken clouds.5 mph54%30.04 "Hg5 mi
11:30 AM75 °FBroken clouds.No wind57%29.86 "HgN/A
10:30 AM70 °FLight rain. More clouds than sun.9 mph46%29.86 "Hg4 mi
9:30 AM79 °FThunderstorms. More clouds than sun.5 mph28%29.89 "HgN/A
8:30 AM81 °FMore clouds than sun.9 mph26%30.04 "HgN/A
7:30 AM77 °FMore clouds than sun.7 mph30%30.01 "HgN/A
6:30 AM70 °FMostly cloudy.9 mph38%29.98 "HgN/A
5:30 AM72 °FPartly cloudy.No wind38%29.98 "HgN/A
4:30 AM73 °FPartly cloudy.No wind33%29.98 "HgN/A
3:30 AM73 °FPartly cloudy.No wind33%29.95 "HgN/A
2:30 AM73 °FPartly cloudy.No wind33%29.95 "HgN/A
1:30 AM73 °FPartly cloudy.No wind33%29.95 "HgN/A
Weather by CustomWeather, © 2014

See weather overviewHow to use our weather pages